Lid_Strength_Index
1 1 1 1 1 1 1 1 1 1 1 1 1 2 1 1 1 1 1 -3 -2 -2 -2 -2 -1 -1 -1 -1 -1 -1 -1 -1 -1 -1 -1 -1 -1 -1 -1 -1 -1 -1 -1
0 1 1 1 1 1 1 1 2 1 1 1 1 1 1 1 1 2 1 0 -3 -3 -2 -2 -1 -1 -1 -1 -1 -1 -1 -1 -1 -1 -0 -1 -1 -1 -1 -1 -1 -1 -1
1 1 1 1 1 1 1 1 1 2 1 1 2 1 1 2 2 1 1 1 1 -2 -2 -3 -1 -1 -1 -1 -1 -1 -1 -1 -1 -1 -1 -0 -1 -1 -1 -1 -1 -1 -1
0 1 1 1 1 1 1 2 2 2 3 2 2 2 1 1 1 2 1 1 1 0 -2 -3 -3 -1 -1 -1 -1 -1 -1 -0 -1 -0 -0 -1 -1 -1 -1 -1 -1 -1 -1
-0 0 0 0 0 0 1 2 3 3 2 2 2 2 1 2 1 1 1 1 1 0 -0 -2 -2 -2 -1 -1 -1 -1 -1 -0 -0 -0 -0 -1 -1 -1 -1 -1 -1 -1 -1
1 2 2 2 1 2 2 2 2 3 3 3 2 2 2 2 2 2 2 1 1 1 1 1 0 3 -1 -1 -1 -2 -2 -1 -0 -0 -0 -0 -0 -0 -0 -0 -1 -1 -1
2 2 2 3 3 3 3 3 3 4 4 4 4 4 4 3 3 2 1 2 1 0 1 1 1 0 -0 -1 -0 -1 -1 -1 -1 -0 -0 -0 -0 -0 -0 -1 -1 -1 -1
2 3 4 3 3 4 4 4 4 5 5 4 6 6 8 6 5 4 4 3 3 2 1 1 1 1 1 -0 -0 -0 -1 -1 -1 -1 -0 -0 -0 -0 -0 -0 -0 -1 -1
3 3 3 3 4 4 5 5 5 5 5 6 6 6 8 8 7 6 5 4 4 3 2 2 0 1 1 1 -0 -0 -0 -0 -1 -1 -0 -0 -0 -0 -0 -0 -0 -0 -0
3 2 3 4 5 5 6 5 5 5 5 7 6 6 6 6 8 9 6 6 5 4 3 3 2 1 0 0 -0 -0 -0 -0 -0 -0 0 1 -1 -0 -0 -0 -0 -0 -1
4 4 4 5 5 5 5 5 5 6 6 7 7 7 7 7 7 8 9 8 7 6 5 3 3 1 2 0 0 0 1 1 0 0 -0 -1 -1 -1 -0 -1 -0 -0 -1
5 4 4 4 4 4 5 5 5 6 7 7 7 7 8 8 8 8 9 8 9 7 5 4 3 3 0 0 -0 -0 0 2 2 1 0 -1 -1 -0 -1 -1 -1 -1 -1
5 5 4 4 5 5 5 5 6 7 7 7 7 7 7 8 8 8 8 9 8 7 6 5 3 2 0 1 0 -0 -0 0 2 1 1 -0 -0 -0 -0 -1 -1 -0 -0
5 4 5 6 6 6 6 6 7 7 7 7 7 7 7 8 8 8 8 9 10 9 7 7 4 4 0 0 0 -0 0 0 1 1 1 0 1 -0 -0 -0 0 0 0
5 6 6 6 6 6 7 7 7 8 7 7 8 8 8 8 7 8 8 7 8 10 9 8 6 4 2 0 0 1 2 1 2 1 0 1 1 1 2 2 1 1 0
7 7 6 7 7 7 7 8 8 8 8 8 8 8 8 8 7 7 7 7 7 8 9 8 6 5 1 0 1 1 2 2 1 2 2 2 3 3 3 3 2 2 2
7 7 7 8 8 8 8 8 8 8 8 8 8 8 8 7 8 7 7 7 7 7 8 7 5 3 1 3 2 3 3 3 3 3 3 3 3 3 3 3 3 3 3
8 8 8 8 8 8 8 8 8 7 8 8 8 7 7 7 8 8 7 7 7 7 7 8 6 5 3 4 2 3 3 4 4 3 4 4 4 4 4 4 4 4 3
8 8 8 8 8 8 7 6 6 6 6 5 6 6 7 7 7 6 5 6 6 5 5 6 6 5 3 4 4 4 4 4 4 3 4 4 4 4 4 4 4 4 4
8 8 8 8 7 7 7 6 5 5 6 5 5 5 6 5 6 6 5 5 4 4 4 5 5 6 4 3 4 5 5 4 5 4 4 4 4 4 5 5 4 4 5
8 8 8 8 8 8 7 6 6 5 6 6 6 5 5 4 3 4 5 5 4 4 3 3 4 4 4 4 5 5 6 5 5 5 5 5 4 5 5 4 3 4 5
9 8 8 8 8 8 9 7 5 5 5 6 6 5 5 4 4 3 2 3 3 4 4 5 4 4 4 4 5 5 6 7 7 4 5 5 4 6 5 4 4 5 5
10 9 8 8 9 9 9 9 7 5 6 6 6 6 5 5 5 5 4 4 4 4 4 4 4 5 5 5 5 5 6 6 7 5 5 6 5 5 4 3 4 5 6
10 10 9 8 9 9 10 10 9 8 7 6 6 6 7 6 6 5 6 6 6 6 6 4 5 5 5 5 5 5 5 6 6 5 5 7 7 7 5 5 5 6 7
11 10 9 10 9 9 10 10 10 8 8 8 8 7 7 8 9 9 6 6 6 6 6 7 7 8 8 8 6 5 6 6 7 7 5 6 6 6 7 7 7 5 6
11 11 9 9 9 10 10 10 10 9 8 8 8 8 8 10 10 10 8 7 8 7 6 6 6 6 6 5 6 6 6 7 8 7 6 6 6 5 7 6 6 5 5